TimeCST,TemperatureF,Dew PointF,Humidity,Sea Level PressureIn,VisibilityMPH,Wind Direction,Wind SpeedMPH,Gust SpeedMPH,PrecipitationIn,Events,Conditions,WindDirDegrees,DateUTC
12:51 AM,44.1,34.0,68,30.27,10.0,SSW,6.9,-,N/A,,Clear,210,2013-02-17 06:51:00
1:51 AM,45.0,36.0,71,30.26,10.0,SSW,8.1,-,N/A,,Clear,210,2013-02-17 07:51:00
2:51 AM,43.0,34.0,71,30.24,10.0,South,5.8,-,N/A,,Clear,190,2013-02-17 08:51:00
3:51 AM,41.0,34.0,76,30.22,10.0,SSE,5.8,-,N/A,,Clear,160,2013-02-17 09:51:00
4:51 AM,39.0,32.0,76,30.22,10.0,SSW,4.6,-,N/A,,Clear,200,2013-02-17 10:51:00
5:51 AM,39.9,33.1,77,30.23,10.0,West,4.6,-,N/A,,Clear,260,2013-02-17 11:51:00
6:51 AM,41.0,34.0,76,30.23,10.0,Calm,Calm,-,N/A,,Clear,0,2013-02-17 12:51:00
7:51 AM,45.0,37.0,74,30.22,10.0,ENE,3.5,-,N/A,,Clear,70,2013-02-17 13:51:00
8:51 AM,52.0,41.0,66,30.24,10.0,Calm,Calm,-,N/A,,Clear,0,2013-02-17 14:51:00
9:51 AM,66.0,48.0,52,30.24,10.0,SSE,13.8,-,N/A,,Partly Cloudy,160,2013-02-17 15:51:00
10:51 AM,72.0,41.0,33,30.23,10.0,South,23.0,29.9,N/A,,Partly Cloudy,170,2013-02-17 16:51:00
11:51 AM,73.0,45.0,37,30.19,10.0,SSE,24.2,31.1,N/A,,Partly Cloudy,160,2013-02-17 17:51:00
12:51 PM,72.0,45.0,38,30.16,10.0,SSE,26.5,35.7,N/A,,Mostly Cloudy,160,2013-02-17 18:51:00
1:51 PM,71.1,45.0,39,30.12,10.0,SSE,29.9,36.8,N/A,,Overcast,160,2013-02-17 19:51:00
2:51 PM,71.1,46.0,41,30.09,10.0,SSE,27.6,35.7,N/A,,Overcast,150,2013-02-17 20:51:00
3:51 PM,70.0,48.0,46,30.06,10.0,SSE,28.8,34.5,N/A,,Overcast,150,2013-02-17 21:51:00
4:51 PM,69.1,48.9,49,30.06,10.0,SSE,24.2,35.7,N/A,,Overcast,160,2013-02-17 22:51:00
5:51 PM,68.0,50.0,52,30.05,10.0,SSE,25.3,34.5,N/A,,Overcast,150,2013-02-17 23:51:00
6:51 PM,66.9,52.0,59,30.04,10.0,SSE,24.2,31.1,N/A,,Mostly Cloudy,150,2013-02-18 00:51:00
7:51 PM,66.9,53.1,61,30.05,10.0,SSE,21.9,27.6,N/A,,Mostly Cloudy,150,2013-02-18 01:51:00
8:51 PM,66.9,54.0,63,30.05,10.0,SSE,21.9,27.6,N/A,,Mostly Cloudy,150,2013-02-18 02:51:00
9:51 PM,66.9,55.0,66,30.04,10.0,SSE,21.9,-,N/A,,Mostly Cloudy,160,2013-02-18 03:51:00
10:51 PM,66.9,55.9,68,30.03,10.0,SSE,19.6,27.6,N/A,,Overcast,160,2013-02-18 04:51:00
11:51 PM,66.9,55.9,68,30.01,10.0,SSE,21.9,-,N/A,,Mostly Cloudy,160,2013-02-18 05:51:00